Regional Weather Roundup
Issued by NWS

Home | Current Version | Previous Version | Graphics & Text | Print | Product List | Glossary On
Versions: 1 2 3 4 5 6 7 8 9 10 11 12 13 14 15 16 17 18 19 20 21 22 23 24 25 26 27 28 29 30 31 32 33 34 35 36 37 38 39 40 41 42 43 44 45 46 47 48 49 50
559
ASUS44 KLIX 180110
RWRLA
LOUISIANA WEATHER ROUNDUP
NATIONAL WEATHER SERVICE NEW ORLEANS LA
800 PM CDT THU APR 17 2014

NOTE: "FAIR" INDICATES FEW OR NO CLOUDS BELOW 12,000 FEET WITH NO
      SIGNIFICANT WEATHER AND/OR OBSTRUCTIONS TO VISIBILITY.
      SKY/WX - SKY CONDITION AND SIGNIFICANT WEATHER.
      TMP - AIR TEMPERATURE.    DP   - DEWPOINT TEMPERATURE.
      RH  - RELATIVE HUMIDITY.  PRES - PRESSURE.
      HX  - HEAT INDEX.         WCI  - WIND CHILL INDEX.

*  THESE STATIONS ARE NOT NWS OR FAA STATIONS AND ARE NOT UNDER
   NWS QUALITY CONTROL.

LAZ040-048-061>063-065-066-069-180200-
SOUTHEAST LOUISIANA

CITY           SKY/WX    TMP DP  RH WIND       PRES   REMARKS
N.O. AUDUBON     N/A     64  32  30 MISG        N/A
N.O. INTL ARPT LGT RAIN  63  60  90 E12       30.12F
N.O. LAKEFRONT LGT RAIN  63  61  93 E12       30.13F
N.O. DOWNTOWN* CLOUDY    63  57  82 NE8       30.12F
SLIDELL        LGT RAIN  62  59  90 CALM      30.13F
BATON ROUGE    CLOUDY    64  57  78 E8        30.13R
BOOTHVILLE     LGT RAIN  62  61  96 E14       30.11F FOG
BELLE CHASSE   LGT RAIN  62  59  90 NE7       30.10F FOG
BOGALUSA*        N/A     64  57  78 CALM      30.16F
GALLIANO*      CLOUDY    63  61  93 NE12G21   30.07F
NEW ROADS*     MOCLDY    62  57  84 NE3       30.14S
GONZALES*      CLOUDY    64  60  90 E9        30.12S
HAMMOND*       CLOUDY    63  57  82 CALM      30.15S
HOUMA*           N/A     64  60  88 NE9G16    30.10R
PORT FOURCHON* CLOUDY    64  63  94 E24G31    30.03F FOG

$$

LAZ041-044-053-054-180200-
SOUTHWEST LOUISIANA

CITY           SKY/WX    TMP DP  RH WIND       PRES   REMARKS
LAKE CHARLES   MOCLDY    60  55  83 NE6       30.12S
LAFAYETTE      CLOUDY    63  58  83 NE6       30.13R
PATTERSON      CLOUDY    63  59  88 NE8         N/A
SALT POINT       N/A     66  61  84 CALM      30.09R
NEW IBERIA     CLOUDY    63  58  83 N6        30.13R
CHENAULT AIRPK NOT AVBL

$$

LAZ027-028-180200-
CENTRAL LOUISIANA

CITY           SKY/WX    TMP DP  RH WIND       PRES   REMARKS
FORT POLK      CLOUDY    58  52  80 NE5       30.13F
ALEXANDRIA INT CLOUDY    60  54  80 N3        30.13F
ALEXANDRIA     CLOUDY    62  56  80 NE5       30.14F

$$

LAZ001-002-180200-
NORTHWEST LOUISIANA

CITY           SKY/WX    TMP DP  RH WIND       PRES   REMARKS
SHREVEPORT     PTCLDY    61  48  62 E7        30.14S
BARKSDALE AFB  PTCLDY    62  48  60 E5        30.15R
DTN SHREVEPORT CLEAR     62  48  60 E3        30.15R

$$

LAZ014-016-180200-
NORTHEAST LOUISIANA

CITY           SKY/WX    TMP DP  RH WIND       PRES   REMARKS
MONROE         CLOUDY    59  55  87 CALM      30.18S
TALLULAH       CLOUDY    64  55  72 SE3       30.18R

$$




USA.gov is the U.S. government's official web portal to all federal, state and local government web resources and services.